Погода в Тусоне

США     32°13′16″N   110°55′33″W
темп.,
°C
ветер,
м/с
пор.,
м/с
влажн.,
%
обл.,
%
осадки,
мм/ч
давл.,
гПа
погр.,
м
4 августа, ср
ср423:00+36ссз23200 0.0 1008255
02:00+35ссз12210 0.0 1008102
05:00+33с11240 0.0 100983
08:00+33з23250 0.0 1011451
11:00+36зсз43220 0.0 10101268
14:00+39зсз56170 0.0 10082976
17:00+40зсз66130 0.0 10063617
20:00+38сз56160 0.0 10071255
5 августа, чт
чт523:00+36ссз12184 0.0 1009135
02:00+34ююз34250 0.0 1010373
05:00+30св11480 0.0 1012434
08:00+31юв11470 0.0 1013638
11:00+35сз12340 0.0 10121205
14:00+38зсз54230 0.0 10102508
17:00+39сз652086 0.0 10072991
20:00+37сз562434 0.0 10081405
6 августа, пт
пт623:00+30юв2245100 0.1 1013476
02:00+30юв3346100 0.0 1012341
05:00+30юв1144100 0.0 1011332
08:00+31юз11420 0.0 1013617
11:00+34зсз32335 0.0 10121469
14:00+38сз54253 0.0 10102138
17:00+38сз65225 0.0 10082672
20:00+36з1426100 0.1 10091615
7 августа, сб
сб723:00+30ююв3344100 0.5 1011400
02:00+30ююв214515 0.0 1010408
05:00+30ю114685 0.0 1011438
08:00+30юз01450 0.6 1012778
11:00+34сз33370 0.8 10121558
14:00+37зсз44280 0.0 10102407
17:00+38ссз76220 0.0 10072885
20:00+30ююв6648100 0.0 1011547
8 августа, вс
вс823:00+29юв3447100 0.0 1011380
02:00+30ююз21442 0.0 1010359
05:00+29ю11460 0.1 1010372
08:00+30зюз11450 0.2 1012701
11:00+33сз33360 0.2 10111418
14:00+37зсз54250 0.0 10092396
17:00+37сз65230 0.0 10062670
20:00+36ссз45262 0.0 10072200